Flag for Ireland Weather past 2 weeks in Galway, Ireland

Now
52 °F

Passing clouds.


Feels Like: 48 °F
Forecast: 50 / 60 °F
Wind: 10 mph from Northwest

Location: Shannon Airport

Current Time: Jul 29, 2015 at 4:22:08 AM

Latest Report: Jul 29, 2015 at 4:00 AM


Visibility: N/A

Pressure: 29.95 "Hg

Humidity: 88%

Dew point: 48 °F

Location of GalwayLocation

Historic Weather in Galway — Graph

°F

Galway temperature yesterday

Maximum temperature yesterday: 61 °F (at 3:00 PM)
Minimum temperature yesterday: 52 °F (at 2:30 AM)
Average temperature yesterday: 55 °F

Past Weeks' High & Low Weather Summary

 TemperatureHumidityPressure
High68 °F (Jul 15, 4:00 PM)100% (Jul 14, 9:00 AM)30.18 "Hg (Jul 14, 9:00 AM)
Low45 °F (Jul 25, 5:00 AM)46% (Jul 15, 4:00 PM)29.33 "Hg (Jul 26, 10:30 AM)
Average57 °F80%29.83 "Hg
* Reported Jul 14 3:00 AM — Jul 29 3:00 AM, Galway, Weather by CustomWeather, © 2015

Note: Actual official high and low records may vary slightly from our data, if they occured in-between our weather recording intervals... More about our weather records

Advertising

Galway weather history for previous 24 hours

 ConditionsComfort  
Time TempWeatherWind HumidityBarometerVisibility
3:00 AM
Wed, Jul 29
52 °FPassing clouds.9 mph88%29.92 "HgN/A
2:30 AM52 °FPassing clouds.8 mph88%29.92 "HgN/A
2:00 AM52 °FPassing clouds.13 mph88%29.92 "HgN/A
1:30 AM52 °FPassing clouds.5 mph88%29.92 "HgN/A
1:00 AM52 °FPassing clouds.8 mph88%29.92 "HgN/A
12:30 AM52 °FPassing clouds.8 mph88%29.92 "HgN/A
12:00 AM52 °FPassing clouds.9 mph88%29.89 "HgN/A
10:30 PM
Tue, Jul 28
54 °FPartly sunny.12 mph82%29.86 "HgN/A
10:00 PM52 °FPartly sunny.12 mph88%29.86 "HgN/A
9:30 PM54 °FPartly sunny.12 mph82%29.86 "HgN/A
9:00 PM55 °FSprinkles. Broken clouds.17 mph77%29.83 "Hg5 mi
8:30 PM55 °FScattered clouds.13 mph77%29.83 "HgN/A
8:00 PM55 °FScattered clouds.17 mph77%29.83 "HgN/A
7:30 PM55 °FSprinkles. Partly sunny.18 mph77%29.83 "HgN/A
7:00 PM59 °FPartly sunny.17 mph68%29.83 "HgN/A
6:30 PM57 °FPartly sunny.20 mph72%29.80 "HgN/A
6:00 PM57 °FScattered clouds.20 mph72%29.80 "HgN/A
5:30 PM59 °FScattered clouds.18 mph72%29.80 "HgN/A
5:00 PM55 °FScattered showers. Broken clouds.16 mph82%29.80 "HgN/A
4:30 PM55 °FScattered showers. Broken clouds.20 mph77%29.80 "HgN/A
4:00 PM61 °FBroken clouds.20 mph63%29.80 "HgN/A
3:30 PM59 °FBroken clouds.21 mph72%29.80 "HgN/A
3:00 PM61 °FScattered clouds.20 mph68%29.80 "HgN/A
2:30 PM57 °FScattered clouds.20 mph77%29.80 "HgN/A
2:00 PM59 °FScattered clouds.20 mph72%29.80 "HgN/A
1:30 PM57 °FScattered clouds.21 mph77%29.80 "HgN/A
1:00 PM57 °FPartly sunny.18 mph72%29.80 "HgN/A
12:30 PM57 °FScattered clouds.17 mph72%29.80 "HgN/A
12:00 PM57 °FScattered clouds.16 mph77%29.80 "HgN/A
11:30 AM54 °FSprinkles. Partly sunny.13 mph88%29.80 "HgN/A
11:00 AM57 °FScattered clouds.15 mph77%29.80 "HgN/A
10:30 AM55 °FScattered clouds.14 mph82%29.80 "HgN/A
10:00 AM54 °FSprinkles. Broken clouds.15 mph82%29.80 "HgN/A
9:30 AM55 °FBroken clouds.10 mph82%29.80 "HgN/A
9:00 AM55 °FPartly sunny.13 mph77%29.80 "HgN/A
8:30 AM54 °FPartly sunny.10 mph88%29.80 "HgN/A
8:00 AM54 °FPartly sunny.9 mph88%29.80 "HgN/A
7:30 AM52 °FPartly sunny.8 mph88%29.80 "HgN/A
7:00 AM52 °FPartly sunny.10 mph88%29.80 "HgN/A
6:30 AM52 °FPassing clouds.8 mph94%29.77 "HgN/A
6:00 AM52 °FSprinkles. Partly cloudy.14 mph94%29.77 "HgN/A
5:30 AM54 °FPassing clouds.8 mph88%29.77 "HgN/A
5:00 AM52 °FPassing clouds.8 mph88%29.77 "HgN/A
4:30 AM54 °FPassing clouds.10 mph82%29.77 "HgN/A
4:00 AM54 °FPassing clouds.13 mph82%29.77 "HgN/A
Weather by CustomWeather, © 2015

See weather overviewHow to use our weather pages